Terug naar catalogus

STARLINK-36862

ActiefCommunicatieVLEO
NORAD 68003·PAYLOAD·🇺🇸 United States

Gelanceerd Feb 27, 2026 vanaf Vandenberg Space Force Base

Loading…

Volgende Passages (komende 24 uur)

TLE

VersSource: CelesTrak SupGP

Epoch: Sep 14, 2026, 20:55 UTC

1 68003C 26039T   26257.87201389  .00035160  00000+0  12736-2 0  2579
2 68003  43.0007  60.7310 0001498 271.6793 104.5491 15.27559199    15

Volg STARLINK-36862 in realtime met AllMySat

Download on the App Store